Flag for Germany Weather past 2 weeks in Bitterfeld-Wolfen, Saxony-Anhalt, Germany

Now
61 °F

Partly sunny.


Feels Like: 61 °F
Forecast: 51 / 78 °F
Wind: 6 mph from West

Location: Leipzig-Schkeuditz

Current Time: Jul 31, 2015 at 11:50:58 AM

Latest Report: Jul 31, 2015 at 11:20 AM


Visibility: N/A

Pressure: 30.12 "Hg

Humidity: 55%

Dew point: 45 °F

Location of Bitterfeld-WolfenLocation

Historic Weather in Bitterfeld-Wolfen — Graph

°F

Bitterfeld-Wolfen temperature yesterday

Maximum temperature yesterday: 70 °F (at 2:50 PM)
Minimum temperature yesterday: 52 °F (at 3:20 AM)
Average temperature yesterday: 60 °F

Past Weeks' High & Low Weather Summary

 TemperatureHumidityPressure
High93 °F (Jul 17, 5:20 PM)100% (Jul 23, 1:50 AM)30.12 "Hg (Jul 23, 1:50 AM)
Low48 °F (Jul 31, 3:50 AM)24% (Jul 17, 5:50 PM)29.59 "Hg (Jul 25, 3:50 AM)
Average69 °F66%29.87 "Hg
* Reported Jul 16 10:20 AM — Jul 31 10:20 AM, Bitterfeld-Wolfen, Weather by CustomWeather, © 2015

Note: Actual official high and low records may vary slightly from our data, if they occured in-between our weather recording intervals... More about our weather records

Advertising

Bitterfeld-Wolfen weather history for previous 24 hours

 ConditionsComfort  
Time TempWeatherWind HumidityBarometerVisibility
10:20 AM
Fri, Jul 31
61 °FPartly sunny.7 mph55%30.09 "HgN/A
9:50 AM59 °FPartly sunny.6 mph63%30.12 "HgN/A
9:20 AM57 °FPartly sunny.6 mph67%30.12 "HgN/A
8:50 AM57 °FScattered clouds.6 mph72%30.09 "HgN/A
8:20 AM55 °FScattered clouds.6 mph77%30.09 "HgN/A
7:50 AM54 °FScattered clouds.7 mph82%30.09 "HgN/A
7:20 AM52 °FSunny.7 mph88%30.09 "Hg10 mi
6:50 AM50 °FSunny.6 mph94%30.09 "Hg10 mi
6:20 AM48 °FClear.6 mph87%30.07 "Hg10 mi
5:50 AM48 °FClear.8 mph94%30.07 "Hg10 mi
5:20 AM48 °FClear.8 mph87%30.07 "Hg10 mi
4:50 AM48 °FClear.8 mph94%30.07 "Hg10 mi
4:20 AM48 °FClear.6 mph87%30.07 "Hg10 mi
3:50 AM48 °FClear.7 mph87%30.07 "Hg10 mi
3:20 AM50 °FClear.6 mph82%30.04 "Hg10 mi
2:50 AM50 °FClear.7 mph88%30.04 "Hg10 mi
2:20 AM52 °FClear.7 mph82%30.04 "Hg10 mi
1:50 AM52 °FClear.7 mph77%30.04 "Hg10 mi
1:20 AM52 °FClear.9 mph82%30.04 "Hg10 mi
12:50 AM52 °FClear.9 mph77%30.01 "Hg10 mi
12:20 AM52 °FClear.8 mph77%30.01 "Hg10 mi
11:20 PM
Thu, Jul 30
55 °FClear.9 mph67%30.01 "Hg10 mi
10:50 PM57 °FClear.10 mph67%30.01 "Hg10 mi
10:20 PM57 °FClear.10 mph63%29.98 "Hg10 mi
9:50 PM61 °FSunny.13 mph55%29.98 "Hg10 mi
9:20 PM63 °FSunny.13 mph49%29.98 "Hg10 mi
8:50 PM63 °FSunny.13 mph49%29.95 "Hg10 mi
8:20 PM63 °FSunny.12 mph52%29.95 "Hg10 mi
7:50 PM64 °FSunny.12 mph49%29.95 "Hg10 mi
7:20 PM64 °FSunny.14 mph46%29.95 "Hg10 mi
6:50 PM64 °FSunny.12 mph49%29.95 "Hg10 mi
6:20 PM66 °FSunny.14 mph46%29.92 "Hg10 mi
5:50 PM66 °FSunny.16 mph40%29.92 "Hg10 mi
5:20 PM70 °FSunny.18 mph35%29.92 "Hg10 mi
4:50 PM66 °FSunny.16 mph43%29.92 "Hg10 mi
4:20 PM68 °FSunny.20 mph38%29.92 "Hg10 mi
3:50 PM66 °FSunny.17 mph37%29.92 "Hg10 mi
3:20 PM68 °FSunny.21 mph38%29.92 "Hg10 mi
2:50 PM70 °FSunny.21 mph35%29.92 "Hg10 mi
2:20 PM68 °FSunny.20 mph38%29.92 "Hg10 mi
1:50 PM66 °FSunny.20 mph40%29.92 "Hg10 mi
1:20 PM64 °FSunny.16 mph49%29.92 "Hg10 mi
12:50 PM64 °FScattered clouds.17 mph49%29.92 "HgN/A
12:20 PM66 °FScattered clouds.17 mph46%29.92 "HgN/A
11:50 AM66 °FPassing clouds.22 mph46%29.92 "HgN/A
11:20 AM64 °FPassing clouds.24 mph52%29.89 "HgN/A
Weather by CustomWeather, © 2015

See weather overviewHow to use our weather pages